Location: Newark
(34.9500°N, 139.9667°E)
Time: 11:48:36
(UTC+00:00)

Vanguard 2 Rocket - Pass Details

Date: 12 December 2019
Orbit: 554 x 3326 km, 32.9° (Epoch: 26 January)

Event Time Altitude Azimuth Distance (km) Brightness Sun altitude
Rises 03:06:02 0° 179° (S) 7,247 12.6 31.5°
Reaches altitude 10° 03:18:49 10° 147° (SSE) 6,194 11.9 31.0°
Maximum altitude 03:21:42 11° 139° (SE) 6,071 11.7 30.9°
Drops below altitude 10° 03:24:31 10° 130° (SE) 6,008 11.5 30.8°
Sets 03:35:22 0° 97° (E) 6,382 11.1 30.2°
